Location: Brno
(49.2000°N, 16.6330°E)
Time: 10:42:50
(UTC+02:00)

ISS - Pass Details

Date: 20 May 2021
Orbit: 417 x 422 km, 51.6° (Epoch: 13 June)

Event Time Altitude Azimuth Distance (km) Brightness Sun altitude
Rises 21:18:38 0° 253° (WSW) 2,358 0.5 -6.3°
Reaches altitude 10° 21:20:43 10° 254° (WSW) 1,497 -0.5 -6.5°
Maximum altitude 21:24:05 82° 340° (NNW) 428 -3.6 -7.0°
Drops below altitude 10° 21:27:28 10° 71° (ENE) 1,504 -1.2 -7.4°
Sets 21:29:34 0° 72° (ENE) 2,371 -0.2 -7.6°
